User: anonymous   Login
Location: Ripley
(48.3812°N, 115.4473°W)
Time: 01:36:15
(UTC+00:00)
Language:

Meteor 2-10 - Orbit

View from above orbital plane
View from above orbital plane
View from above satellite
View from above satellite

Ground track
Ground track

The orbit data is extracted from the following two-line orbital elements,

1 14452U 83109A   22343.03878598  .00000129  00000-0  46248-4 0  9999
2 14452  81.1621 216.4313 0090189 336.8355  22.8769 14.26620327 33998
Epoch (UTC): 09 December 2022 00:55:51
Eccentricity: 0.0090189
inclination: 81.1621°
perigee height: 738 km
apogee height: 868 km
right ascension of ascending node: 216.4313°
argument of perigee: 336.8355°
revolutions per day: 14.26620327
mean anomaly at epoch: 22.8769°
orbit number at epoch: 3399

The dashed part of the orbit path shows where the satellite is in the earth's shadow,  

DLR